HAIYANG-1C (43609 NORAD) Tracking and Keplerian Element Data

This shows tracking and keplerian element data for the satellite.

Feedback or suggestion? Click here.




ElementValue
Catalog43609
NameHAIYANG-1C
Epoch Orbit33572
Epoch Day35.3103619
Epoch Year2025
RAAN108.2424
Inclination98.5778
Eccentricity0.00111
Argument of Perigee129.8756
Mean Anonmoly230.3407
Mean Motion14.34157315
Decay Rate4.01E-06
L11 43609U 18068A 25035.31036190 .00000401 00000+0 15865-3 0 9995
L22 43609 98.5778 108.2424 0011100 129.8756 230.3407 14.34157315335723



Live tracking and technical data element details for HAIYANG-1C (NORAD 43609). HAIYANG-1C can be tracked NOW for your location showing map with azimuth and elevation plus other details from your city location.







IsCatalogInMostPopularTable: catalog: 43609, numindb: 495
Update: records affected: 1



GetName: 43609 HAIYANG-1C

Hit Count: updated at: Fri, 16 May 2025 11:24:20 GMT